Location: doobydoo
(53.3403°N, 2.6908°W)
Time: 05:10:39
(UTC+00:00)

ISS - Pass Details

Date: 26 November 2021
Orbit: 413 x 422 km, 51.6° (Epoch: 26 January)

Event Time Altitude Azimuth Distance (km) Brightness Sun altitude
Rises 16:26:54 0° 219° (SW) 2,385 1.7 -4.1°
Reaches altitude 10° 16:29:15 10° 205° (SSW) 1,520 0.0 -4.4°
Maximum altitude 16:32:03 24° 150° (SSE) 940 -2.0 -4.8°
Drops below altitude 10° 16:34:51 10° 95° (E) 1,520 -1.4 -5.2°
Enters shadow 16:36:02 - 86° (E) 1,941 -1.0 -5.3°
